STARLINK-4413 (53207 NORAD) Tracking and Keplerian Element Data

This shows tracking and keplerian element data for the satellite.

Feedback or suggestion? Click here.




ElementValue
Catalog53207
NameSTARLINK-4413
Epoch Orbit1072
Epoch Day270.15676246
Epoch Year2022
RAAN329.9806
Inclination97.6534
Eccentricity0.0001782
Argument of Perigee113.2901
Mean Anonmoly246.8511
Mean Motion15.01260538
Decay Rate-4.93E-06
L11 53207U 22084U 22270.15676246 -.00000493 00000+0 -33779-4 0 9993
L22 53207 97.6534 329.9806 0001782 113.2901 246.8511 15.01260538 10723

Live tracking and technical data element details for STARLINK-4413 (NORAD 53207). STARLINK-4413 can be tracked NOW for your location showing map with azimuth and elevation plus other details from your city location.

Track the satellite on the map from your city or location and see movement details for azimuth, elevation, latitude, longitude, range, height, and movement on the map or in text.







IsCatalogInMostPopularTable: catalog: 53207, numindb: 6
Update: records affected: 1



GetName: 53207 STARLINK-4413

Hit Count: updated at: Fri, 30 Sep 2022 02:25:44 GMT